Puebla, Mexico

8:44 AM CDT on July 23, 2017 (GMT -0500)
Hermanos Serdan International

Weather History for MMPB - February, 2013

Change the Weather History Date:

Friday, February 1, 2013

  Actual Average Record
Temperature  
Mean Temperature 60 °F -  
Max Temperature 79 °F 66 °F 79 °F (2013)
Min Temperature 41 °F 42 °F 35 °F (2004)
Degree Days  
Heating Degree Days 5    
Growing Degree Days 10 (Base 50)    
Moisture  
Dew Point 36 °F    
Average Humidity 45    
Maximum Humidity 87    
Minimum Humidity 14    
Precipitation  
Precipitation 0.00 in - - ()
Sea Level Pressure  
Sea Level Pressure 30.25 in    
Wind  
Wind Speed 6 mph ()    
Max Wind Speed 18 mph    
Max Gust Speed -    
Visibility 7.6 miles    
Events      
Averages and records for this station are not official NWS values.
T = Trace of Precipitation, MM = Missing Value Source: Averaged Metar Reports

Daily Weather History Graph

Daily Weather History Graph

Search for Another Location

Airport or City:

Trip Planner

Search our weather history database for the weather conditions in past years. The results will help you decide how hot, cold, wet, or windy it might be!

Date:

Astronomy

Feb. 01, 2013 Rise Set
Actual Time 7:06 AM CST 6:26 PM CST
Civil Twilight 6:44 AM CST 6:49 PM CST
Nautical Twilight 6:17 AM CST 7:15 PM CST
Astronomical Twilight 5:51 AM CST 7:41 PM CST
Moon 11:34 PM CST (2/1) 10:36 AM CST (2/1)
Length of Visible Light 12h 05m
Length of Day
11h 19m
Waning Gibbous, 70% of the Moon is Illuminated
Feb 1
Waning Gibbous
Feb 3
Last Quarter
Feb 10
New
Feb 17
First Quarter
Feb 25
Full

Hourly Weather History & Observations

Time (CST) Temp. Windchill Dew Point Humidity Pressure Visibility Wind Dir Wind Speed Gust Speed Precip Events Conditions
12:45 AM 44.6 °F 41.4 °F 37.4 °F 76% 30.37 in 8.0 mi NNW 5.8 mph - N/A   Clear
2:55 AM 48 °F - 45 °F 84% 29.99 in 3 mi Calm Calm - -  
5:56 AM 42.8 °F 38.6 °F 35.6 °F 76% 30.37 in 8.0 mi NNW 6.9 mph - N/A   Scattered Clouds
5:58 AM 43 °F - 40 °F 87% 30.03 in 3 mi Calm Calm - -  
6:49 AM 41.0 °F 35.8 °F 33.8 °F 76% 30.38 in 8.0 mi NNW 8.1 mph - N/A   Scattered Clouds
7:42 AM 39.2 °F 33.6 °F 33.8 °F 81% 30.39 in 8.0 mi NNW 8.1 mph - N/A   Scattered Clouds
8:50 AM 50 °F - 40 °F 60% 30.14 in 6 mi ENE 2.2 mph - -   Haze
8:50 AM 53.6 °F - 35.6 °F 51% 30.41 in 8.0 mi North 5.8 mph - N/A   Partly Cloudy
9:48 AM 62.6 °F - 35.6 °F 37% 30.40 in 8.0 mi North 5.8 mph - N/A   Partly Cloudy
10:44 AM 71.6 °F - 28.4 °F 20% 30.40 in 8.0 mi North 6.9 mph - N/A   Clear
11:49 AM 75.2 °F - 24.8 °F 15% 30.37 in 8.0 mi North 5.8 mph - N/A   Clear
11:50 AM 72 °F - 37 °F 18% 30.08 in 6 mi SSE 2.2 mph - -   Haze
12:40 PM 77.0 °F - 24.8 °F 14% 30.34 in 8.0 mi NNW 6.9 mph - N/A   Clear
1:41 PM 77.0 °F - 33.8 °F 21% 30.30 in 8.0 mi SSE 13.8 mph - N/A   Clear
2:42 PM 77.0 °F - 33.8 °F 21% 30.29 in 8.0 mi South 11.5 mph - N/A   Clear
2:50 PM 77 °F - 38 °F 15% 29.89 in 12 mi ESE 4.5 mph - -  
3:40 PM 75.2 °F - 33.8 °F 22% 30.27 in 8.0 mi SSE 15.0 mph - N/A   Clear
4:50 PM 73.4 °F - 33.8 °F 23% 30.27 in 8.0 mi SSW 13.8 mph - N/A   Clear
5:50 PM 72 °F - 36 °F 17% 29.77 in 12 mi ESE 2.2 mph - -  
5:50 PM 69.8 °F - 33.8 °F 27% 30.29 in 8.0 mi SSW 18.4 mph - N/A   Clear
6:41 PM 64.4 °F - 33.8 °F 32% 30.31 in 8.0 mi South 9.2 mph - N/A   Clear
7:44 PM 59.0 °F - 42.8 °F 55% 30.34 in 8.0 mi SSE 6.9 mph - N/A   Clear
8:47 PM 53.6 °F - 42.8 °F 67% 30.38 in 8.0 mi SSE 6.9 mph - N/A   Clear
8:50 PM 58 °F - 39 °F 37% 29.79 in 3 mi ENE 2.2 mph - -  
9:43 PM 50.0 °F - 41.0 °F 71% 30.40 in 8.0 mi SE 5.8 mph - N/A   Clear
10:41 PM 48.2 °F - 41.0 °F 76% 30.41 in 8.0 mi SSW 6.9 mph - N/A   Clear